Theta_e
302 302 301 300 301 301 301 301 301 302 305 296 295 300 299 300 296 305 308 311 309 301 294 295 293 290 293 296 295 294 293 292 292 292 293 293 295 293 293 293 292 293 294 291 292 292 288 290 289 289 290 292 296 298 299 300 298 297 292 294 292 295 287 283 285 288 289 292 294 294 292 287 285 285 286 285 284 284 284 284 284 282 282 281 281 279 282
300 301 301 302 301 300 300 300 300 301 302 298 298 298 297 299 300 301 308 310 306 298 288 288 290 292 294 293 293 294 293 292 291 293 293 293 291 292 291 292 296 292 295 293 291 293 286 291 292 290 291 290 298 298 298 299 295 295 290 292 291 288 286 287 282 282 283 285 288 289 289 286 286 285 286 288 289 288 287 286 284 282 283 283 280 276 281
299 300 300 300 301 300 299 299 299 300 301 301 297 293 298 298 301 300 302 307 304 293 296 293 291 291 292 292 291 292 292 293 295 294 292 294 293 291 291 294 293 292 293 293 294 292 292 288 291 292 288 290 293 296 297 298 295 297 296 296 294 291 288 287 280 277 276 276 277 280 284 285 283 284 284 286 286 286 284 281 283 279 283 284 281 280 286
299 299 299 299 300 300 301 300 299 299 299 301 296 292 293 292 285 292 297 301 299 299 301 297 292 289 289 289 292 293 291 293 293 294 293 296 293 294 292 289 292 291 290 290 290 290 291 289 286 287 285 286 289 293 295 296 296 297 298 294 293 285 288 288 286 284 282 284 286 288 288 284 284 286 288 288 285 284 286 284 282 280 283 283 284 285 285
299 299 299 299 299 300 300 300 299 299 298 299 294 291 292 293 288 288 287 297 297 295 297 295 294 290 292 286 290 289 290 290 289 294 288 292 293 292 293 292 290 289 290 288 288 290 289 289 288 287 288 289 291 292 293 293 295 296 294 295 290 283 282 286 287 287 288 289 289 290 290 287 288 287 287 289 288 287 285 282 281 286 282 278 285 287 285
299 299 299 299 299 299 299 299 300 300 299 299 295 287 291 285 287 292 291 288 285 290 290 295 294 294 293 289 290 287 287 288 287 289 292 291 291 287 286 292 292 291 290 289 285 287 287 285 285 287 286 285 287 287 290 289 294 295 292 293 292 284 283 287 287 286 288 289 289 290 289 289 288 288 287 287 288 287 285 286 288 287 283 280 285 287 285
299 299 299 299 299 299 298 299 299 300 301 298 291 286 288 289 286 287 292 285 287 289 289 291 293 292 293 289 290 287 287 286 288 288 286 289 287 292 285 289 290 288 287 285 284 286 283 282 285 282 281 282 284 284 287 289 291 289 288 290 286 284 285 287 288 286 287 288 288 289 287 288 288 287 287 288 287 287 287 287 288 287 286 287 287 287 287
298 298 298 298 298 298 298 298 298 298 300 296 289 289 286 282 286 282 290 288 285 284 287 289 288 286 290 287 289 290 289 287 289 289 289 285 286 291 288 287 284 285 286 286 283 284 286 283 280 284 284 281 284 283 286 286 288 288 287 288 287 288 284 290 288 285 285 287 288 288 287 287 286 287 287 287 287 287 287 287 287 287 286 287 287 286 286
299 298 298 298 298 298 298 298 298 298 300 289 288 283 287 289 291 292 286 283 281 283 283 284 285 284 286 286 288 290 289 288 291 289 294 290 287 288 285 285 285 285 285 285 285 287 284 284 284 285 284 280 285 283 283 289 283 286 286 287 287 288 284 289 287 282 282 287 286 286 286 285 284 285 286 286 285 284 285 285 287 286 284 286 286 284 285
298 298 298 298 298 298 298 298 298 298 299 290 287 281 285 287 289 292 289 281 286 279 279 280 282 280 284 286 286 287 284 287 288 283 291 292 290 286 285 285 285 284 284 282 284 284 283 284 286 287 287 289 288 288 288 288 286 285 285 287 285 286 284 283 284 280 281 286 286 286 286 284 281 282 285 287 287 288 288 289 289 289 289 285 282 284 290
298 298 298 298 298 298 298 298 298 298 296 290 288 284 285 285 284 284 287 280 281 282 281 279 280 282 280 281 282 285 284 285 284 282 282 287 285 287 286 284 283 282 282 283 286 287 287 287 287 288 287 287 287 288 288 288 289 288 286 285 286 286 285 283 285 278 280 284 285 285 281 275 277 288 291 290 287 287 285 286 288 289 290 287 288 286 284
297 298 298 298 298 298 298 298 299 299 300 293 292 287 287 286 285 285 282 278 278 282 280 278 280 279 280 279 280 280 280 280 281 286 281 283 285 285 284 283 284 278 288 286 286 287 288 288 287 286 286 285 286 286 287 286 286 289 289 286 285 284 284 283 285 280 278 282 283 278 273 276 286 289 290 291 291 291 288 288 289 285 278 281 283 283 282
297 298 298 299 299 299 299 299 299 299 300 295 293 289 290 289 287 285 283 280 276 279 278 279 279 279 280 280 280 279 280 280 281 283 284 283 282 283 283 284 283 284 286 283 284 284 280 277 279 279 279 280 280 282 282 283 284 286 287 288 285 282 282 281 281 282 282 280 278 272 273 284 284 288 282 282 282 280 281 282 282 275 278 279 280 280 281
298 298 298 298 298 298 299 299 299 299 299 297 291 291 290 291 287 284 283 279 277 279 279 278 278 277 278 278 279 278 280 280 279 280 279 281 281 280 281 284 285 287 285 283 282 280 274 276 270 272 271 275 273 272 277 281 283 283 284 286 288 286 285 284 279 284 275 278 278 276 283 282 283 279 278 278 275 276 276 274 278 276 278 280 279 280 280
299 299 299 299 299 299 299 299 299 299 299 298 294 292 291 291 291 286 285 284 277 280 281 275 279 278 278 278 279 278 279 280 280 279 282 282 280 282 282 284 285 284 283 281 278 280 276 276 269 269 268 267 263 265 278 273 280 283 285 284 285 286 281 284 279 278 284 276 276 276 276 273 272 274 280 282 280 280 281 279 278 277 279 281 280 278 279
299 300 299 299 299 299 299 299 298 298 298 299 294 291 291 293 292 291 286 282 279 273 278 282 282 278 277 277 279 277 277 279 278 279 277 276 277 280 281 282 282 282 282 282 281 277 274 273 270 271 268 268 270 272 268 275 271 279 280 279 278 279 282 281 279 276 277 275 272 272 272 274 274 275 278 281 281 281 283 280 274 276 278 280 280 279 279
300 299 299 299 299 298 299 298 299 298 298 298 292 291 290 294 291 288 285 282 282 275 283 281 282 281 279 276 278 277 278 275 277 275 274 275 277 279 280 281 279 281 281 278 278 276 274 273 273 273 272 273 269 269 274 271 270 270 276 274 273 273 273 274 273 272 273 273 271 270 275 270 274 276 279 279 280 281 281 273 272 275 278 280 279 279 278
300 300 299 299 299 299 299 299 299 299 299 299 295 289 289 293 293 290 286 283 280 279 283 284 281 279 278 277 276 278 278 275 276 276 275 275 273 273 273 275 274 276 280 274 273 270 270 270 268 268 268 276 275 276 267 273 268 269 269 271 269 269 268 271 269 269 271 273 270 273 274 278 276 276 279 278 281 278 269 264 271 278 279 280 279 278 279
300 300 299 299 299 298 298 300 299 299 299 299 295 291 290 292 292 291 287 284 282 277 284 285 286 282 282 283 279 280 279 278 277 275 270 272 273 274 274 273 279 271 275 267 271 266 266 264 271 268 269 270 276 268 275 269 269 274 273 271 271 271 272 270 272 268 267 267 266 267 272 278 276 278 279 280 275 263 264 275 280 278 279 279 279 278 279
299 299 299 299 299 299 299 299 299 300 299 298 295 288 291 293 292 290 286 282 283 280 283 282 284 281 284 280 278 278 277 279 279 277 274 271 274 273 274 271 273 271 267 272 268 268 268 267 269 266 262 264 267 275 267 269 274 271 272 273 270 270 270 267 268 270 270 268 266 266 263 274 277 277 275 279 269 268 277 279 280 282 279 278 277 278 277
298 299 299 300 299 299 298 298 298 298 298 299 298 289 288 291 293 292 291 287 282 279 281 286 285 284 284 283 283 283 281 278 280 278 279 279 277 274 268 268 266 265 263 265 264 264 263 261 262 264 265 265 265 267 260 261 262 271 271 269 269 272 265 264 267 272 265 266 264 265 273 275 278 276 269 276 277 279 280 279 276 278 277 276 278 277 278
298 299 299 299 299 299 299 298 298 298 298 298 297 291 287 291 293 292 292 289 284 281 281 284 286 285 286 287 287 286 286 285 285 284 279 276 275 278 273 271 264 267 267 265 264 262 264 263 265 265 262 263 263 263 263 262 262 264 266 269 263 273 266 272 268 273 268 265 271 275 277 277 277 277 277 278 281 282 279 278 276 275 275 276 276 276 277
298 298 299 299 299 298 297 298 298 298 297 298 296 289 287 290 290 294 290 282 285 287 287 285 285 287 288 289 289 288 288 288 287 285 285 281 276 278 278 277 275 278 275 278 270 271 268 267 266 267 263 265 267 263 261 265 258 262 263 270 269 273 274 274 272 271 275 276 276 277 275 275 275 277 279 281 281 280 278 277 275 276 276 276 275 276 276
298 298 298 298 297 297 298 298 298 298 297 298 297 289 288 290 290 290 286 286 283 280 284 285 282 280 282 283 287 290 289 288 288 288 289 286 277 276 279 280 281 280 276 279 280 275 266 267 268 270 269 271 267 266 266 265 268 269 267 266 270 273 275 271 269 272 269 263 273 272 273 275 275 275 276 277 278 278 277 275 276 276 276 276 276 276 276
297 298 298 297 298 298 298 298 298 297 297 298 296 293 290 286 290 287 283 279 280 279 274 278 281 285 287 289 289 287 288 290 291 289 288 287 284 280 278 281 284 281 279 280 282 277 269 267 268 269 268 273 273 263 272 266 264 273 264 269 269 268 275 270 272 271 269 268 273 274 275 275 276 276 275 275 276 275 275 275 275 275 275 275 275 275 274
298 298 297 298 298 297 298 297 296 297 298 298 296 289 288 288 291 290 287 287 285 280 274 274 278 284 285 284 283 286 289 289 288 288 288 288 287 286 284 284 281 283 282 281 278 276 271 267 268 266 266 268 278 266 267 273 270 273 270 268 273 272 275 264 270 269 272 273 274 274 275 275 275 275 275 275 275 273 273 274 273 273 272 273 273 273 273
297 298 298 298 297 297 297 297 297 296 298 297 294 290 290 289 292 289 285 285 281 275 278 274 278 278 281 281 284 285 286 287 287 286 286 287 286 286 284 283 282 282 280 280 279 277 272 271 271 270 272 271 276 267 270 268 271 265 266 273 274 272 269 273 271 266 267 268 271 273 266 268 273 274 274 274 273 273 272 273 272 271 271 271 270 271 271
297 297 296 297 297 296 295 297 297 297 296 296 295 290 288 287 289 290 289 288 282 276 276 274 273 275 280 276 282 284 284 286 286 285 285 285 285 285 284 283 282 280 280 279 275 275 273 272 271 276 275 272 271 269 275 275 275 272 272 273 275 272 273 272 269 268 267 273 274 275 275 274 275 276 273 273 273 272 271 271 271 270 269 269 268 267 268
296 296 296 296 296 296 297 297 296 297 296 295 287 285 284 288 290 291 291 288 287 282 279 279 277 274 273 277 283 283 284 285 284 284 284 283 284 284 283 283 282 282 281 280 279 278 275 274 278 274 270 274 272 267 272 265 267 267 272 276 276 276 277 276 275 275 275 276 276 276 273 273 276 275 272 272 272 272 270 270 269 269 269 267 267 267 266
296 296 296 295 296 296 295 296 297 297 296 288 284 283 280 283 289 289 291 290 283 284 279 276 272 276 279 280 276 279 281 283 283 283 282 282 282 283 284 283 282 284 282 279 277 273 276 275 277 278 278 279 274 269 268 268 267 270 275 276 277 277 277 278 278 275 274 276 272 273 273 274 274 272 271 272 271 269 268 267 268 267 268 267 266 266 267
296 296 295 295 295 296 296 296 296 295 294 286 284 279 277 274 282 290 293 291 288 284 279 280 276 279 274 274 279 279 280 282 281 281 282 282 282 282 284 284 283 283 279 279 277 277 278 273 276 277 280 280 278 266 265 265 266 267 274 276 276 276 276 276 277 273 271 269 269 269 267 269 270 270 270 270 267 267 266 266 267 268 268 267 266 266 266
295 295 295 295 296 296 296 295 295 295 290 285 283 281 280 281 285 289 293 292 288 283 278 274 274 275 273 275 275 280 282 282 282 281 280 282 280 282 281 283 281 283 282 278 279 276 274 277 275 275 275 280 279 268 268 269 268 269 274 274 276 276 276 276 271 268 268 268 267 268 269 270 269 268 266 267 266 266 265 265 266 266 267 266 266 265 265
295 295 294 295 296 295 296 296 295 294 287 289 294 295 293 292 294 294 293 291 286 282 282 276 271 272 270 268 270 274 280 278 277 279 277 282 278 280 278 282 281 281 285 280 276 274 278 277 276 273 276 278 274 273 272 270 272 276 277 277 277 276 272 267 267 267 265 265 266 265 267 267 266 266 265 265 265 265 265 265 265 265 264 262 262 262 262
295 295 295 295 294 294 294 295 295 294 292 288 282 284 287 294 293 294 289 285 281 282 278 274 272 272 270 269 268 271 281 277 275 278 273 280 278 279 276 278 280 277 278 277 279 277 274 275 272 270 272 270 274 266 267 272 276 276 276 277 270 266 265 266 266 263 263 263 264 263 264 265 265 264 264 263 264 265 265 264 262 261 260 260 261 262 262
295 294 293 294 295 295 294 294 288 287 283 284 284 285 289 294 295 295 290 284 279 278 276 273 272 267 268 266 266 271 278 278 274 277 274 274 281 279 278 272 272 273 273 280 271 275 273 273 273 266 268 264 266 265 267 271 273 274 273 270 262 264 263 265 263 261 261 262 261 262 262 262 262 261 262 263 262 263 262 261 261 260 259 260 260 261 261
293 294 294 294 294 293 288 288 286 281 281 282 283 291 294 295 295 293 290 287 283 273 273 272 272 270 271 266 265 268 280 276 278 276 278 273 270 275 277 272 268 273 277 276 269 273 270 275 268 262 264 264 265 267 270 270 269 266 261 260 260 260 259 260 259 260 259 259 259 260 260 260 261 261 261 261 261 261 261 260 260 260 259 259 259 260 259
292 292 294 291 287 286 282 282 286 285 281 287 290 295 294 291 283 284 283 282 284 283 275 270 270 270 272 269 270 270 277 267 276 272 269 270 268 268 269 265 267 273 269 266 265 268 274 279 268 261 261 265 269 266 261 262 261 260 259 259 259 260 259 259 259 258 256 256 256 259 260 258 257 259 259 260 260 260 258 258 258 258 257 257 257 257 257
292 291 282 282 281 279 278 280 281 283 293 292 292 285 280 284 277 280 281 279 283 283 277 277 272 273 274 270 267 276 276 270 274 269 266 269 270 266 267 268 266 273 262 263 268 276 269 268 265 268 268 270 262 259 260 258 258 258 258 258 258 258 258 258 258 256 254 255 256 256 255 256 256 258 258 257 258 257 258 258 258 258 257 257 257 257 256
290 284 282 282 279 276 277 276 285 294 290 288 285 278 274 276 274 271 271 274 276 274 279 276 273 276 273 272 271 281 276 269 267 268 268 274 271 263 266 262 269 270 263 264 266 276 264 263 262 262 264 265 264 257 258 259 257 257 257 257 258 257 257 257 258 256 254 254 256 255 255 255 255 255 256 256 257 257 257 257 257 257 256 256 255 255 255
281 280 280 279 277 279 286 287 293 290 286 279 277 276 271 276 273 268 273 267 266 266 271 271 278 277 277 273 272 272 280 273 269 267 267 264 275 264 269 263 266 264 258 260 264 270 263 259 260 260 260 261 259 255 256 256 256 255 257 256 257 257 257 256 256 257 257 257 257 257 257 257 257 256 255 255 255 255 255 255 255 255 255 255 255 255 254
281 279 279 277 278 280 283 284 281 278 279 275 274 274 270 266 269 270 267 262 264 264 269 269 272 273 277 278 276 272 279 277 269 269 266 262 272 273 266 263 271 259 259 258 266 263 261 257 258 260 263 256 253 255 254 254 254 255 255 255 255 255 255 255 256 256 255 254 254 255 254 254 254 254 255 255 254 254 254 254 254 254 254 254 253 254 255
283 282 279 281 281 280 281 279 276 274 275 276 271 267 269 268 267 264 265 263 262 262 265 270 266 271 270 276 275 277 271 272 270 271 266 262 273 265 259 263 265 258 258 264 262 258 258 258 256 257 254 252 254 253 252 251 253 252 253 253 254 254 254 254 254 254 254 254 254 254 254 254 253 254 254 254 254 253 253 253 253 253 253 253 254 254 254
290 287 283 276 277 277 278 273 276 274 268 268 267 264 268 265 267 263 260 265 263 265 265 270 269 277 275 273 266 271 272 278 271 269 264 260 274 267 261 261 260 259 263 264 260 258 258 257 254 257 252 252 252 251 251 251 253 253 254 255 255 255 254 254 253 253 253 254 253 253 253 253 253 253 253 253 253 252 252 253 253 253 253 253 253 254 254
285 283 277 275 274 275 276 266 275 269 268 266 265 263 263 260 261 261 260 260 262 264 264 270 269 273 268 268 269 270 266 272 278 265 264 267 262 260 260 257 259 263 259 257 256 258 257 255 256 253 252 252 253 252 253 253 253 253 253 254 254 254 254 254 254 253 253 253 253 253 253 252 252 252 252 252 252 251 251 252 252 253 253 254 254 255 256
277 275 274 273 270 274 271 265 272 267 264 265 269 262 262 261 262 263 266 263 263 264 266 267 267 269 267 268 266 268 275 264 272 264 264 265 260 260 258 258 259 256 258 258 250 249 251 258 252 250 251 250 253 252 252 252 252 252 252 252 253 253 253 252 252 252 252 252 252 252 252 252 252 252 252 251 252 252 251 251 252 253 253 254 255 255 256
275 273 272 268 266 271 268 264 263 259 264 268 265 262 264 265 260 259 259 259 260 262 263 264 266 267 266 267 266 266 267 266 265 266 266 261 259 259 260 259 259 258 256 252 254 256 261 256 250 250 251 252 252 252 252 252 252 252 251 250 251 252 252 252 252 252 252 252 252 252 252 252 251 251 251 251 251 251 252 252 253 254 255 255 255 256 257
276 276 273 271 267 270 269 262 261 261 260 258 259 258 261 260 257 259 257 259 257 262 264 265 267 268 267 269 268 268 266 265 263 266 263 261 261 263 266 260 259 256 254 253 251 255 255 250 249 252 252 251 251 250 251 251 251 251 251 251 251 252 252 252 252 251 252 252 252 251 251 251 251 251 251 251 251 252 253 254 255 256 256 256 256 257 257
271 273 271 266 265 267 265 264 260 259 259 258 259 258 259 259 260 260 260 261 262 265 264 266 268 269 268 270 269 266 265 264 262 263 264 262 264 257 257 258 258 257 252 252 257 251 250 251 251 251 251 251 250 250 250 251 251 251 251 251 252 252 251 251 251 251 251 251 250 251 251 250 250 250 251 251 251 252 254 254 256 256 257 257 257 257 257
276 271 268 266 267 266 264 262 262 261 259 258 260 259 259 261 258 258 258 261 262 262 264 265 267 267 265 269 266 267 266 267 261 262 265 262 258 258 257 254 253 253 257 251 252 247 248 250 250 250 249 250 250 250 250 251 252 252 252 251 251 251 251 251 251 251 251 251 251 250 250 251 251 251 251 252 251 253 255 255 256 256 257 257 256 256 256
273 270 267 265 265 264 262 262 264 261 260 258 260 261 261 259 258 257 260 258 259 259 266 271 273 271 267 266 263 264 261 262 261 264 261 260 258 257 256 252 253 254 252 244 245 248 249 250 250 248 248 248 250 251 251 251 252 251 251 251 251 251 251 251 251 251 251 251 250 250 250 250 250 251 251 251 253 254 255 255 256 256 257 257 256 256 256
269 265 260 260 261 263 265 264 262 259 257 259 260 261 261 260 261 258 261 258 258 262 264 264 267 264 264 265 262 259 262 263 260 259 257 256 256 255 255 259 255 246 246 249 249 250 249 249 247 247 247 248 250 250 251 251 251 250 251 251 251 251 251 251 250 250 250 250 250 252 249 249 250 251 252 253 254 254 255 256 256 256 256 256 257 256 255
267 262 260 260 261 260 260 259 258 258 258 259 258 259 260 257 259 258 261 261 259 263 263 262 261 261 261 259 260 258 260 261 260 256 255 255 249 252 252 250 246 245 245 246 247 247 247 247 246 247 247 248 249 249 250 249 249 249 249 249 250 250 250 250 250 250 249 249 249 249 250 250 251 252 253 253 254 254 254 254 255 256 256 256 256 256 256
Wind_Speed
8 7 6 6 7 8 9 11 11 13 14 4 5 1 2 8 7 3 7 10 13 7 6 6 6 6 3 3 3 1 3 3 3 2 1 3 4 2 5 6 6 6 7 4 7 7 7 6 9 4 8 11 13 11 14 12 13 10 4 2 3 5 2 2 11 7 9 13 13 16 9 5 5 4 5 4 7 6 8 9 5 8 5 10 12 14 8
8 9 9 9 8 7 8 9 10 10 10 3 3 1 3 2 2 0 4 11 4 7 8 9 11 6 4 3 4 2 2 3 4 6 3 4 2 4 3 1 9 6 8 7 9 6 9 6 15 9 7 7 12 16 16 15 8 4 4 6 3 5 3 8 12 5 6 5 6 11 7 3 8 8 7 10 13 13 12 6 2 10 12 16 15 21 11
7 8 8 7 9 8 6 7 7 9 10 8 1 1 2 2 2 3 3 8 8 11 7 9 7 9 10 6 10 6 3 6 13 10 5 3 5 2 4 6 2 5 6 9 8 5 14 6 5 7 4 7 4 11 15 11 10 8 5 9 3 11 6 8 11 11 12 9 9 11 13 13 4 2 3 5 8 12 8 12 9 15 11 16 16 16 11
6 7 8 8 8 8 9 7 5 7 8 11 4 2 0 2 4 2 3 4 8 7 5 9 6 7 8 11 9 8 11 3 3 7 9 10 4 4 2 5 3 5 3 8 8 10 6 9 3 2 1 2 2 4 8 9 8 11 15 5 6 3 3 8 11 13 15 15 13 2 1 1 6 7 8 9 6 3 7 8 11 16 15 17 16 16 17
7 7 6 7 7 7 8 9 8 6 6 7 2 2 2 3 2 4 3 3 11 9 6 9 6 9 6 8 3 12 12 7 5 10 5 6 10 5 9 8 7 6 8 9 10 10 10 8 10 9 12 5 7 8 12 10 10 13 7 7 5 2 6 10 16 21 20 20 21 18 15 15 15 15 19 17 15 12 14 11 17 9 13 19 11 17 18
8 8 8 7 7 7 7 7 9 9 6 5 2 1 2 2 4 0 4 3 4 13 12 10 8 9 11 8 4 7 8 6 8 1 5 3 3 4 1 11 14 16 15 8 7 4 10 4 8 5 4 4 7 10 6 6 10 13 8 6 10 7 12 13 15 19 19 21 21 22 21 19 19 20 20 21 19 18 20 22 22 19 18 23 16 15 18
8 8 8 8 8 7 7 7 7 6 12 4 2 1 5 1 2 3 2 1 4 4 3 1 8 11 10 4 9 11 13 11 6 4 1 2 3 8 7 7 6 4 5 1 4 5 9 8 3 1 3 3 4 5 9 5 6 9 8 8 3 4 10 12 16 19 15 16 20 21 22 20 20 20 20 21 22 23 24 25 24 26 27 25 23 23 27
9 9 9 9 8 7 7 7 6 6 5 3 1 3 2 4 1 4 3 1 5 1 0 0 1 3 5 6 7 12 12 16 11 4 5 5 3 1 8 2 6 3 1 1 3 4 3 2 5 1 3 8 2 3 5 8 7 8 7 6 3 4 5 6 12 13 16 18 20 18 21 23 23 21 21 22 23 25 26 24 23 23 25 26 29 28 28
10 10 9 9 9 8 8 7 6 7 2 2 1 3 1 2 2 4 4 4 4 1 1 4 4 4 4 8 4 4 5 7 1 3 2 2 3 1 2 4 5 1 4 4 6 2 3 1 6 5 5 7 2 2 4 6 12 15 10 3 4 4 6 4 10 14 14 9 15 17 16 17 21 22 23 24 24 25 22 21 22 22 25 27 27 23 20
11 11 10 10 10 9 9 9 7 6 1 3 1 0 2 1 2 1 2 5 4 1 3 0 0 10 6 1 2 2 3 2 5 4 3 2 5 8 4 4 5 4 4 7 1 1 3 7 7 7 8 10 11 11 11 10 10 6 11 6 9 4 6 10 9 15 12 7 12 16 19 18 20 23 25 29 29 24 23 22 22 23 22 20 17 20 14
12 12 12 12 11 11 10 10 9 7 3 2 2 2 1 1 2 2 0 5 4 5 2 4 7 3 2 2 1 3 3 2 5 2 3 1 2 6 5 7 6 5 4 1 4 3 6 8 8 7 8 11 13 12 12 15 14 13 10 7 6 10 11 12 8 15 13 14 16 11 13 16 10 5 17 22 25 25 26 23 20 19 14 12 9 8 14
13 13 13 13 13 12 12 10 10 11 6 4 3 2 3 2 2 1 1 8 9 2 7 9 8 2 3 3 1 1 3 3 3 2 7 6 8 6 4 1 2 5 2 1 5 5 7 7 6 7 10 12 14 14 16 17 17 14 12 13 13 16 14 15 9 13 15 14 15 18 22 17 4 2 5 7 14 17 19 17 18 12 17 18 18 20 20
14 13 13 13 13 13 13 13 13 13 9 5 4 5 4 3 4 2 2 5 8 6 5 7 3 4 4 5 8 6 6 5 1 2 3 6 8 2 2 2 2 4 4 7 5 8 9 10 10 8 9 7 8 13 18 19 20 18 14 14 14 14 15 12 11 10 11 12 11 17 17 1 1 7 16 11 12 16 16 9 11 13 11 10 12 13 15
16 15 14 14 14 14 13 14 14 14 14 8 6 6 3 2 4 3 3 3 8 7 6 10 9 10 8 9 6 4 4 5 2 0 2 3 6 4 1 2 2 1 5 2 2 4 4 2 5 5 6 3 3 3 9 14 15 17 16 14 13 15 12 11 14 9 15 12 16 22 14 14 8 5 13 12 7 10 6 5 5 16 12 14 12 12 15
17 17 16 15 15 15 15 15 13 13 13 10 6 4 5 5 4 5 2 4 8 6 5 9 2 5 10 8 7 7 6 5 4 4 2 1 3 2 1 3 2 1 4 2 2 1 2 4 3 4 4 4 3 3 5 2 2 4 8 2 5 2 5 3 8 5 9 15 16 15 14 16 5 3 5 2 5 10 10 7 6 12 14 11 14 14 18
19 18 18 17 16 14 15 14 14 15 14 14 6 5 6 7 5 2 3 4 2 9 9 12 7 1 2 3 1 2 3 2 2 1 3 3 4 5 1 2 3 3 0 1 2 1 1 4 6 7 6 4 2 5 3 5 3 2 3 4 6 2 2 6 7 8 8 13 11 8 9 4 3 9 9 9 14 12 8 5 6 8 11 11 14 15 15
20 19 19 19 18 18 17 16 16 16 14 13 6 7 6 6 7 6 4 2 6 10 3 2 6 6 6 3 2 3 2 3 4 2 4 4 2 0 5 4 2 2 4 2 2 2 3 4 5 6 6 4 6 6 8 3 6 4 6 6 6 9 7 6 8 10 9 11 12 10 3 2 9 10 9 11 14 14 2 10 5 12 10 8 13 12 14
18 18 19 19 19 18 19 18 17 16 15 15 7 5 4 6 7 6 5 5 8 8 8 5 4 6 7 5 3 2 3 1 1 2 3 2 1 2 3 1 2 5 3 0 3 3 5 6 7 8 9 5 3 2 8 5 6 7 6 3 4 3 4 1 8 4 9 11 12 9 6 4 8 11 16 18 10 1 5 8 9 9 6 7 9 9 10
18 18 17 18 19 20 19 17 18 18 16 16 5 2 5 6 7 8 4 5 6 8 4 8 8 7 5 1 3 3 2 4 3 2 2 3 3 4 5 3 1 3 2 4 1 1 3 3 1 1 5 4 3 4 2 1 6 2 3 7 2 2 3 2 4 6 6 3 5 7 8 3 10 14 13 12 9 9 7 4 3 5 6 7 4 7 6
18 20 19 19 19 19 18 18 18 17 17 19 11 6 3 6 9 10 8 7 5 9 8 4 6 14 6 6 6 6 3 3 6 5 2 7 2 4 4 5 5 2 3 2 1 3 3 6 6 1 2 2 3 2 2 5 4 4 4 5 6 5 6 5 6 4 5 5 11 11 14 2 18 12 15 5 5 9 6 5 2 2 4 6 5 4 9
21 20 19 19 18 19 21 19 19 20 18 18 11 4 5 3 8 10 9 8 4 8 12 6 4 11 7 8 10 10 10 10 6 6 8 10 3 3 3 4 5 2 4 3 7 5 2 2 3 2 3 2 6 2 4 1 5 6 2 2 2 1 6 5 6 4 10 9 11 7 2 9 8 8 6 6 3 5 1 1 2 3 1 3 3 6 7
20 19 18 18 20 21 19 19 19 18 21 19 15 6 7 5 7 8 9 8 9 11 4 2 4 5 7 7 6 7 10 9 10 10 6 4 2 8 5 4 4 2 2 2 1 2 2 1 0 0 3 4 1 6 1 3 7 2 1 1 9 5 6 4 7 3 2 4 8 10 14 11 10 6 2 6 6 4 5 4 4 4 3 3 4 7 8
21 21 20 20 20 21 21 20 21 22 21 20 12 5 8 5 6 8 7 5 4 5 4 5 3 5 5 6 4 7 8 6 6 4 6 6 7 6 9 8 9 3 1 2 6 6 6 5 7 4 2 3 8 3 2 7 3 1 5 5 7 2 4 2 2 7 9 10 11 12 8 10 12 11 3 4 6 5 4 4 4 4 5 3 5 7 8
20 20 21 22 22 22 21 20 20 18 21 21 14 7 6 8 7 5 2 4 5 6 7 8 6 9 10 14 17 11 6 6 8 11 9 9 9 8 5 6 2 1 3 5 6 6 4 3 6 3 8 4 6 5 7 6 9 5 4 4 3 8 7 4 7 7 6 8 5 5 6 13 13 10 4 4 3 4 5 4 5 6 5 5 5 7 8
21 20 20 21 20 20 21 20 21 22 23 21 13 8 3 1 3 7 7 5 5 7 9 5 12 15 11 12 9 8 12 13 12 10 7 10 14 12 14 8 7 11 11 6 1 0 1 2 2 2 8 6 8 7 6 6 6 8 7 8 3 7 6 5 11 11 9 13 14 13 12 14 14 11 9 7 7 6 5 6 5 6 5 4 6 4 6
19 18 19 19 19 20 21 21 23 23 21 20 15 7 8 9 7 9 6 4 3 2 5 9 6 1 4 6 8 9 8 12 14 15 14 15 15 16 15 8 3 2 3 2 5 8 5 2 3 3 5 7 8 6 7 12 8 5 11 11 10 6 1 5 5 7 9 10 10 15 16 14 15 15 9 9 7 5 6 6 6 5 4 5 4 3 7
20 19 18 19 20 21 22 22 22 23 21 20 13 7 7 6 9 11 9 6 3 5 8 11 6 3 1 8 3 2 5 9 8 10 12 13 13 10 10 10 11 7 6 6 3 6 3 4 4 10 8 7 5 4 4 2 6 4 5 8 3 1 10 13 4 7 11 12 13 5 5 10 10 8 10 8 8 7 6 5 5 3 4 4 6 8 6
19 19 20 20 20 20 21 20 19 21 23 21 11 7 7 8 8 11 10 10 10 10 2 1 1 5 1 4 4 6 5 6 10 11 11 12 13 12 12 13 11 9 9 9 8 5 4 6 9 4 2 1 3 7 5 3 2 4 7 8 7 10 13 9 9 9 12 14 12 8 11 13 12 13 5 10 2 1 4 7 5 4 3 3 4 9 11
19 19 20 20 19 20 18 19 19 20 21 16 2 2 2 7 7 9 10 9 9 6 6 7 4 3 8 6 3 7 7 9 9 10 11 11 12 12 12 13 12 11 10 9 8 6 7 9 5 4 5 5 3 4 3 6 7 10 12 13 12 13 14 14 16 19 17 14 15 9 6 11 15 7 3 2 2 4 6 1 1 4 6 4 5 7 10
18 19 19 20 19 19 20 20 18 17 16 3 6 1 4 5 8 9 9 9 6 3 5 7 8 7 1 2 4 5 5 7 10 11 12 11 10 10 11 11 11 10 9 8 6 7 8 5 5 6 6 4 4 3 3 4 6 9 9 11 14 15 12 14 16 15 14 8 2 2 6 8 6 4 3 4 0 3 2 4 4 6 7 5 8 10 7
18 18 19 19 20 19 19 18 19 20 15 5 4 5 4 5 4 9 16 11 10 7 4 4 8 3 5 3 4 9 9 10 10 12 13 12 9 11 10 9 10 9 8 8 7 11 7 4 7 7 5 9 8 4 6 3 8 5 10 13 13 12 12 14 8 1 2 1 1 2 3 7 6 4 6 1 3 4 6 7 9 8 9 9 10 11 11
18 18 18 18 18 17 17 19 19 15 7 9 10 8 4 3 3 7 13 10 10 6 4 4 4 3 4 2 2 4 10 13 9 4 4 4 8 9 7 9 10 10 9 9 7 1 5 9 7 7 7 10 9 1 3 8 12 13 12 11 9 9 7 7 1 3 6 4 3 6 8 9 2 3 3 5 10 9 6 9 9 8 9 10 11 9 10
18 17 18 17 17 18 17 18 19 12 7 9 13 13 6 4 8 9 9 8 6 3 4 4 5 2 2 6 1 2 4 2 2 4 7 5 7 4 6 8 8 7 8 9 4 6 4 6 7 8 11 4 2 4 7 10 12 13 16 15 13 7 2 5 4 5 6 6 4 3 8 5 4 5 7 10 9 9 8 7 7 8 10 11 14 14 10
17 17 16 16 16 16 15 16 17 18 12 6 5 7 7 13 10 10 7 5 2 2 2 3 3 5 6 2 1 4 5 7 5 7 6 4 3 5 6 4 7 6 5 11 7 4 2 1 7 5 3 3 3 2 5 10 13 16 15 11 2 6 2 2 4 6 5 4 3 1 7 9 9 9 8 8 9 6 6 7 6 9 12 12 14 13 12
15 14 15 16 15 14 15 13 8 5 5 5 3 2 8 19 18 14 11 5 4 4 4 3 2 2 2 1 3 6 3 3 5 7 9 5 4 9 4 3 2 7 4 3 1 5 6 6 5 4 9 2 3 4 5 12 15 11 6 2 8 8 4 1 1 5 6 5 6 7 6 7 8 8 8 9 9 9 9 8 4 7 13 15 15 14 12
15 14 14 15 13 11 1 2 3 3 4 4 4 7 15 17 17 12 13 11 8 3 4 3 2 7 6 8 5 4 2 4 3 2 4 1 1 1 3 4 6 6 1 5 6 4 7 3 5 4 1 3 6 9 7 3 2 5 7 6 6 6 2 1 5 7 7 8 9 8 6 4 6 11 11 11 9 8 7 12 12 7 10 14 16 15 14
15 14 14 6 2 4 3 4 2 5 5 4 6 5 4 2 3 7 3 0 3 1 4 2 5 7 7 5 0 3 4 5 2 3 2 3 6 1 2 2 6 2 1 1 2 7 7 4 3 4 2 8 7 3 6 5 5 4 4 4 4 4 4 4 5 7 9 7 7 2 1 7 10 8 10 11 11 9 10 12 11 11 15 18 18 16 16
13 5 2 3 2 2 3 3 4 5 9 11 9 5 1 2 2 1 3 4 4 5 4 5 10 6 2 4 8 4 5 5 2 5 2 2 1 2 1 2 5 3 6 4 7 4 3 2 4 9 8 3 7 7 7 6 7 6 4 4 5 4 4 4 4 6 7 9 3 4 10 10 10 8 6 12 13 15 14 10 9 9 10 13 14 14 16
7 2 2 2 3 4 4 3 4 9 8 4 2 1 1 1 3 1 3 3 2 6 6 8 12 10 8 8 6 1 7 7 4 2 5 4 4 5 1 2 3 2 3 1 7 7 2 3 1 2 7 3 5 4 4 6 6 5 5 3 3 4 4 4 4 3 2 3 7 5 5 10 14 20 15 13 15 15 14 11 12 11 11 13 13 14 15
5 3 4 4 6 4 1 2 7 9 3 5 1 3 2 2 5 4 1 2 2 2 2 7 9 10 12 14 11 9 2 5 9 8 6 3 0 4 2 2 2 3 3 4 5 3 4 3 1 2 5 3 5 3 4 3 3 3 3 3 2 4 3 4 4 4 6 8 9 10 9 10 12 13 15 16 15 18 21 19 14 12 12 14 15 15 16
3 2 1 4 4 3 3 1 4 2 2 2 2 1 1 1 2 1 1 1 1 4 2 3 2 5 7 10 10 12 4 2 1 2 3 4 3 4 2 2 1 3 1 2 3 3 1 1 1 4 8 2 3 2 2 1 1 4 1 2 3 4 2 4 5 5 6 7 7 8 8 9 11 12 12 14 15 16 17 18 19 17 17 17 17 17 14
6 6 2 1 1 2 2 1 1 2 0 1 3 3 3 2 0 0 1 4 5 2 4 1 1 6 7 11 10 7 2 1 2 2 3 1 2 4 3 1 1 3 2 4 2 1 2 1 1 4 1 1 0 0 1 3 3 4 5 3 3 3 4 4 6 5 4 8 9 10 10 9 11 12 12 13 14 15 16 18 20 19 16 16 15 15 15
10 7 7 3 1 1 0 2 3 2 4 3 3 2 2 3 3 5 2 1 1 2 4 1 2 1 2 3 2 0 3 1 2 1 2 3 0 2 2 0 1 1 4 1 2 1 2 2 3 5 2 2 1 2 3 3 4 5 5 5 4 6 5 6 6 8 7 8 10 10 11 11 12 11 11 13 15 18 16 15 17 18 16 16 15 15 15
6 4 2 0 1 4 3 5 2 3 3 1 3 5 2 1 2 1 1 4 2 1 3 5 5 7 5 0 2 1 2 1 1 1 0 1 2 0 1 2 4 4 2 1 1 2 4 2 3 1 1 3 2 3 5 6 6 6 6 4 5 5 6 7 8 9 9 8 8 10 10 11 13 12 10 10 11 16 17 17 16 16 17 16 16 16 16
5 1 2 2 2 2 4 4 1 3 5 4 4 3 4 7 7 8 9 1 2 2 1 1 1 4 3 1 2 1 1 1 3 3 1 2 1 0 2 3 1 1 1 2 0 2 2 4 1 1 3 4 5 5 4 6 5 7 9 8 7 6 8 10 10 9 10 10 11 11 11 11 12 12 10 10 10 10 13 17 15 15 15 14 13 13 12
4 6 5 3 5 2 3 2 1 0 2 2 4 6 8 7 5 3 1 1 0 4 3 1 1 4 3 0 4 2 0 1 1 1 1 1 2 3 3 0 1 1 1 2 1 5 8 2 2 2 3 4 6 6 5 6 6 6 8 11 10 9 8 9 10 10 11 12 11 10 12 11 11 12 13 11 11 12 12 13 13 14 15 14 11 11 12
2 2 1 1 2 2 2 3 3 2 2 1 1 2 3 4 3 5 1 1 1 2 3 5 1 1 5 0 1 1 0 1 2 1 2 1 1 1 1 1 1 1 1 3 3 5 3 0 3 3 4 5 7 6 6 7 6 7 9 9 11 12 11 11 11 12 12 11 12 12 12 11 11 11 12 13 12 11 13 13 14 14 13 14 14 13 13
4 1 3 3 4 2 6 2 3 2 2 2 1 2 1 2 5 3 2 0 3 1 2 1 2 1 2 1 3 2 1 0 1 2 1 1 1 1 1 0 1 1 2 3 7 1 3 1 3 5 6 4 6 7 8 8 7 7 9 10 12 13 13 13 13 12 11 12 12 12 12 12 11 12 12 14 14 13 12 12 13 13 12 12 12 12 13
3 3 4 2 1 2 1 4 7 6 1 2 1 3 1 5 4 0 2 1 1 1 2 1 0 2 0 0 2 1 1 1 2 2 1 0 1 3 2 2 1 3 4 2 3 3 2 3 4 4 5 5 6 7 8 8 9 10 10 11 11 12 12 12 12 12 11 11 11 11 12 12 12 12 12 12 12 12 12 13 13 11 11 12 12 12 12
3 1 2 2 4 4 2 3 6 4 0 2 2 2 2 4 3 1 1 1 2 2 2 2 2 2 0 1 0 0 1 0 1 0 2 1 2 0 1 2 4 6 3 1 1 2 3 5 4 5 5 5 7 8 9 9 9 10 9 10 10 10 11 12 14 12 11 11 11 12 12 12 11 11 12 12 12 13 13 12 11 10 10 10 11 11 10
3 4 2 3 0 5 8 8 8 7 3 3 2 1 2 1 2 2 4 2 4 1 3 2 1 2 1 1 1 1 1 1 1 2 3 3 1 2 3 7 4 1 1 1 2 4 5 6 4 6 6 6 7 8 8 9 10 11 11 11 11 10 11 11 12 12 11 11 10 11 12 11 12 12 13 12 12 12 12 10 9 9 9 9 9 9 9
3 4 3 1 3 5 5 5 6 5 4 5 3 1 2 3 2 2 5 3 2 3 3 1 2 2 2 2 2 1 1 1 0 1 1 2 1 2 3 2 2 4 3 2 6 6 4 5 4 6 6 8 9 8 9 9 9 10 9 10 10 10 11 11 11 11 11 10 11 11 12 13 13 12 12 12 11 9 9 9 8 9 9 7 8 9 8
Wind_Direction
322 323 328 332 343 354 352 351 352 351 355 24 348 297 224 204 227 354 151 177 161 162 210 210 221 223 263 18 300 77 305 225 218 211 194 222 195 227 226 203 226 232 238 224 245 209 249 187 226 209 228 226 216 219 238 247 262 256 248 228 248 144 214 184 245 243 249 269 275 286 264 222 283 266 229 213 233 202 227 238 222 240 271 286 267 257 240
311 318 332 348 340 343 353 353 357 355 356 29 304 264 251 264 242 178 207 192 223 179 205 213 219 225 258 227 253 222 209 234 256 238 203 184 230 208 206 274 215 242 208 221 237 166 272 196 234 249 204 252 207 237 240 241 248 196 232 216 253 249 210 207 258 244 255 243 287 269 264 167 225 226 210 217 232 241 242 255 124 251 232 243 252 257 243
311 308 308 322 336 335 347 353 357 358 349 359 8 271 295 320 277 213 198 206 182 211 197 228 212 221 234 216 238 239 245 216 232 247 241 203 212 210 247 220 178 235 204 236 242 218 230 275 247 243 201 255 224 231 232 235 252 238 235 220 191 230 222 191 217 234 246 240 233 238 245 233 209 191 229 244 228 242 266 259 237 248 238 236 244 258 254
307 305 307 308 318 327 335 342 360 0 354 352 33 320 339 219 236 240 208 208 225 245 216 238 199 225 222 234 228 222 242 242 233 183 253 230 244 230 280 304 297 243 241 246 236 245 229 229 262 281 295 271 296 226 248 231 239 242 251 217 94 269 210 215 225 232 244 246 253 265 6 9 250 249 243 257 244 238 244 277 260 251 257 247 246 255 264
289 292 294 298 301 315 324 327 343 11 0 352 355 294 180 282 283 212 222 184 230 245 202 225 183 233 165 243 160 230 231 239 277 177 256 213 217 227 225 239 233 237 230 242 256 245 261 234 246 238 255 266 266 278 272 274 261 264 266 269 154 215 255 230 237 236 242 249 252 251 251 256 260 263 266 262 251 243 247 238 250 260 284 262 247 255 259
292 292 296 299 299 302 311 314 331 353 354 359 26 333 247 194 252 10 238 195 219 218 229 223 219 226 201 227 204 243 244 212 234 271 232 225 195 196 308 236 227 236 233 242 247 218 242 233 252 257 270 331 335 329 328 301 281 277 274 232 237 228 257 249 242 244 238 244 250 253 254 250 252 255 257 258 258 253 250 253 256 253 247 259 256 259 261
285 287 290 293 298 302 302 303 304 342 358 23 81 199 283 167 302 281 304 189 254 251 11 281 244 248 220 230 213 249 245 242 221 185 299 228 245 212 242 229 255 328 9 317 270 256 257 258 280 60 8 345 319 307 329 311 27 16 336 318 326 326 249 256 252 258 245 241 241 244 247 253 252 249 250 251 253 254 251 254 253 253 256 258 262 254 255
273 277 279 281 285 289 287 293 292 296 352 38 51 264 227 300 236 309 8 245 277 252 296 91 329 274 238 248 207 236 241 253 248 246 213 245 261 204 248 28 40 277 0 201 210 251 262 172 264 280 40 324 264 261 240 295 324 343 322 310 285 218 279 271 269 264 256 251 248 241 238 241 247 248 248 247 248 251 249 252 256 262 264 263 261 261 261
273 274 274 273 273 272 275 277 281 268 322 59 195 285 199 265 348 292 320 307 265 344 204 248 238 243 217 234 216 223 195 241 204 254 261 195 219 58 64 4 339 172 232 241 259 239 81 213 229 257 265 263 268 288 289 318 303 305 303 295 316 305 299 287 276 275 265 245 252 250 253 248 246 248 247 248 245 247 246 247 240 241 249 252 257 261 263
267 268 266 268 266 266 263 264 263 272 206 110 281 53 271 51 303 30 318 265 278 4 295 14 79 249 238 172 282 231 304 61 1 335 242 174 93 81 43 351 337 298 310 288 339 116 235 238 242 234 232 235 250 242 243 243 258 273 278 273 275 247 276 277 280 270 267 263 259 263 260 257 246 236 236 237 239 239 244 247 249 245 251 259 258 261 293
257 259 262 261 265 261 259 256 253 254 101 140 167 251 26 57 312 353 352 275 272 257 309 272 223 250 69 334 258 297 246 49 29 252 274 69 134 74 42 352 325 303 278 304 283 256 244 247 250 248 241 240 246 248 247 242 232 234 250 268 250 256 254 269 278 280 289 298 293 299 284 245 253 226 230 233 240 242 244 249 254 262 268 296 322 0 25
255 253 251 254 254 251 250 246 244 242 177 194 135 201 210 131 85 76 91 241 257 209 199 235 226 323 353 311 354 269 296 312 296 303 279 281 303 343 345 300 235 277 112 334 312 289 259 251 253 258 249 252 253 254 253 254 253 238 226 234 257 264 271 268 266 273 281 281 281 277 251 267 268 97 21 306 278 279 277 275 274 355 12 10 21 18 23
250 251 252 250 248 250 250 246 240 239 223 163 156 215 237 152 134 178 167 240 255 251 243 254 311 314 294 298 281 276 279 279 289 238 251 283 294 271 229 126 236 263 347 339 332 347 343 309 303 276 275 272 254 247 247 247 250 251 240 225 235 249 253 262 253 258 270 260 258 256 257 328 318 85 29 9 28 11 7 355 57 23 5 13 34 16 11
248 253 246 244 245 244 243 243 245 244 236 179 175 209 219 155 159 171 197 199 254 245 239 279 276 273 277 274 271 290 298 284 283 98 331 263 276 284 288 115 195 353 301 302 23 325 328 315 322 336 305 291 280 271 243 245 246 245 250 244 229 238 254 250 263 229 255 257 259 258 280 270 224 35 7 24 13 328 339 298 77 27 8 10 11 12 11
254 248 249 246 243 244 242 244 244 244 249 232 170 206 192 208 194 178 196 236 253 261 203 235 252 223 228 243 240 256 251 258 263 270 261 299 282 273 139 186 191 231 268 2 334 334 201 287 302 315 306 353 330 272 343 311 293 246 241 325 42 323 272 310 287 258 236 261 267 270 258 249 42 241 268 271 252 251 242 236 220 36 11 358 16 9 9
254 256 254 254 251 250 251 250 248 243 238 232 186 201 210 195 195 174 171 186 232 261 241 229 235 165 197 209 188 183 239 214 231 286 289 270 267 295 281 199 244 177 113 224 239 219 252 258 262 284 261 267 275 322 282 326 330 292 44 15 19 336 208 236 238 288 306 288 284 286 301 7 37 344 311 318 320 298 296 202 187 50 12 356 17 8 6
255 253 253 252 251 248 246 244 245 242 240 233 196 196 218 184 175 185 191 221 212 233 32 136 198 220 256 303 272 273 195 217 215 234 263 249 247 278 308 291 257 169 225 105 254 224 235 244 240 246 267 269 281 246 280 245 267 301 315 3 355 358 324 345 301 289 278 286 282 283 283 90 355 333 337 323 309 289 193 247 176 27 18 349 6 4 4
255 255 253 251 249 248 245 243 241 238 236 234 205 177 210 193 185 161 221 200 226 253 219 206 110 177 206 182 176 225 96 334 342 263 241 262 61 298 272 329 313 291 149 87 222 204 214 229 243 246 258 243 217 262 248 281 278 272 295 327 307 347 332 298 267 270 288 292 280 292 284 107 1 342 345 347 319 54 33 272 316 358 8 10 355 357 345
254 251 251 253 251 247 244 241 239 237 233 233 215 166 229 201 196 184 184 215 217 246 180 185 213 233 236 233 197 196 183 175 192 200 274 351 252 203 167 243 161 298 334 142 289 174 218 253 281 235 275 267 228 218 295 218 266 33 310 311 317 323 262 260 270 269 276 288 292 256 287 183 20 347 4 332 17 14 295 329 37 313 329 347 8 333 330
254 251 252 249 247 247 245 239 237 238 239 235 205 205 217 186 189 182 182 217 230 256 244 201 195 219 218 195 197 212 246 232 211 214 199 233 259 65 358 327 312 99 337 112 165 241 197 242 237 252 278 253 259 215 348 233 276 282 319 311 293 279 308 260 280 304 303 280 282 282 277 341 7 335 350 45 84 265 290 320 199 215 316 310 334 328 315
255 253 249 247 248 247 248 242 241 238 231 232 215 182 246 211 196 203 191 195 225 256 264 210 182 224 212 213 196 201 198 215 189 213 219 230 210 103 229 223 228 136 211 154 170 247 173 232 271 230 220 163 261 0 214 30 328 274 189 258 274 303 288 272 267 233 266 262 248 248 329 321 325 17 284 325 221 258 310 245 230 259 229 284 315 307 295
259 258 253 250 249 243 239 244 245 242 237 231 221 172 227 199 191 195 209 196 209 224 225 153 187 227 231 226 221 206 209 218 212 197 194 232 248 204 218 193 214 154 218 126 67 345 340 216 117 266 262 270 13 212 218 328 267 277 22 166 296 207 182 239 271 323 261 226 275 295 309 319 312 296 274 259 252 165 188 191 229 242 239 222 269 291 295
256 253 250 247 244 247 246 239 236 239 237 233 223 183 212 177 199 204 171 199 269 297 294 273 252 256 252 244 216 211 221 223 223 215 207 221 258 232 224 235 245 183 232 184 187 204 223 158 222 193 275 199 206 245 280 188 245 250 268 234 209 261 249 259 334 247 246 250 253 280 283 281 289 300 268 213 221 194 157 189 226 255 254 252 265 277 294
255 252 249 249 250 246 239 240 243 244 244 237 217 163 210 200 192 162 121 188 197 255 260 229 226 233 223 242 241 231 224 226 216 221 213 198 238 257 247 234 190 221 228 218 183 171 207 161 222 186 237 223 96 188 221 236 218 225 259 288 235 233 240 244 222 258 287 280 247 235 277 283 277 280 258 234 233 187 189 210 229 255 267 268 265 273 281
257 255 254 250 244 244 245 239 237 236 238 238 231 209 171 252 195 160 155 203 210 205 248 254 217 232 224 222 226 216 220 223 225 222 207 207 219 231 242 213 174 212 232 224 117 286 150 176 261 177 223 232 145 242 204 214 279 173 223 241 277 285 179 184 246 242 217 255 267 276 263 257 276 277 275 230 215 186 213 221 226 233 243 256 270 280 286
260 258 255 252 251 250 248 245 243 238 232 233 224 178 199 211 184 184 190 224 247 182 231 250 280 36 192 199 222 211 204 209 217 218 213 215 218 225 244 255 265 232 235 168 170 211 207 227 201 205 206 270 164 184 212 197 216 196 201 222 202 220 72 211 209 247 248 267 271 264 269 278 269 264 245 228 191 194 245 239 237 230 255 271 277 272 283
261 256 254 254 251 247 243 241 242 242 236 233 231 200 198 209 173 177 189 172 179 280 225 256 258 276 259 226 218 153 206 208 210 217 225 224 224 223 226 237 243 241 239 251 215 222 202 212 189 233 210 241 184 213 199 241 194 213 231 236 186 166 246 253 255 263 262 254 258 238 281 279 273 243 213 219 202 192 233 272 270 241 256 274 288 288 281
262 259 255 255 252 248 246 239 238 241 244 239 230 213 199 204 192 189 189 181 189 227 265 239 222 248 311 276 234 219 210 187 204 209 214 223 222 220 222 229 231 236 232 228 247 231 194 204 227 237 223 241 239 253 220 230 233 252 228 235 198 206 236 244 236 238 256 255 252 217 236 261 263 276 196 214 223 315 266 256 258 272 262 263 282 290 296
261 262 260 256 253 249 243 244 242 236 239 243 184 171 203 217 213 204 197 198 194 217 249 264 287 302 260 249 172 216 210 198 206 208 214 220 215 213 221 223 225 228 232 229 235 239 227 231 211 187 196 209 157 243 175 234 226 231 230 233 229 232 234 239 247 253 262 267 273 261 220 250 267 268 134 251 310 266 264 246 251 273 283 280 269 265 275
261 262 259 255 255 253 248 246 242 243 237 191 84 186 251 255 195 195 201 195 169 182 206 229 229 246 311 237 226 192 201 205 216 214 216 220 217 215 216 219 231 227 221 223 209 227 226 232 221 220 225 157 182 215 198 220 234 241 245 244 238 239 231 236 241 245 257 275 331 233 236 261 278 353 331 288 49 91 5 308 293 286 279 275 281 282 259
262 261 260 259 256 253 249 244 241 235 228 143 137 185 207 250 191 188 196 190 174 174 219 225 247 321 301 247 185 201 191 201 211 219 223 221 222 218 217 206 227 211 221 219 210 229 219 216 217 224 213 200 200 166 209 205 252 257 242 236 239 235 233 240 252 283 322 34 44 14 315 273 282 335 290 272 62 15 339 306 298 282 277 282 278 279 282
258 259 260 257 256 255 252 250 245 238 208 175 191 198 176 209 183 182 189 180 154 166 179 245 262 231 244 274 239 191 188 206 205 202 220 179 233 222 226 195 222 204 210 227 220 207 223 230 233 233 219 209 199 215 175 219 242 246 251 244 231 231 229 255 305 85 58 30 22 317 276 266 155 166 299 339 324 321 299 284 278 281 286 285 280 272 272
259 259 258 257 258 255 248 250 251 240 182 209 219 223 156 145 107 121 170 135 147 192 180 191 217 220 231 241 322 299 163 108 198 183 243 190 231 171 219 207 221 229 221 225 189 222 223 208 201 229 235 176 202 227 228 232 241 244 249 255 257 261 292 80 86 85 68 26 47 217 265 302 291 319 319 305 296 288 287 285 296 297 294 293 291 289 281
257 258 259 261 261 256 254 251 247 243 230 176 200 219 208 205 218 194 135 131 161 210 192 182 208 219 248 334 16 273 154 163 209 177 242 218 185 165 210 176 197 211 204 205 218 213 255 193 201 226 43 231 196 92 240 240 240 247 249 256 351 27 79 91 65 74 32 17 22 279 264 275 291 298 295 283 282 283 285 295 299 302 295 289 286 290 297
257 261 259 259 259 258 256 259 256 196 157 204 229 225 181 207 210 203 174 141 171 230 198 232 150 178 250 311 226 266 190 122 194 193 202 254 167 200 196 209 264 206 253 110 321 221 213 211 131 116 225 108 113 226 240 242 242 246 270 357 18 339 17 30 57 27 344 330 305 280 274 285 293 295 292 296 294 296 298 285 268 288 295 294 295 299 305
256 258 260 257 257 256 280 106 154 142 191 200 214 195 197 205 210 202 183 183 187 195 212 231 166 212 203 233 230 264 155 229 203 179 203 156 343 272 190 187 201 223 141 168 212 171 206 171 101 239 184 134 219 208 242 264 310 52 65 67 26 49 38 1 306 325 313 300 279 277 280 279 285 294 296 285 281 283 287 296 298 279 265 282 293 302 303
250 249 250 272 351 89 185 203 189 191 209 163 196 161 182 129 16 58 49 42 280 169 211 207 225 221 189 228 206 259 134 232 178 184 210 189 210 250 110 100 206 173 73 293 179 199 232 117 144 219 193 214 246 60 53 47 52 64 68 64 44 35 19 359 338 326 322 307 280 228 334 316 296 278 277 280 286 293 296 292 296 308 309 305 306 307 303
248 270 65 82 129 193 216 222 194 210 184 167 149 86 298 104 198 155 159 203 199 175 231 203 233 239 146 163 233 218 144 238 145 189 261 204 169 261 176 179 228 150 215 225 235 164 102 153 199 210 243 171 89 65 60 73 71 70 60 59 38 20 357 341 337 352 346 344 7 336 323 308 290 271 255 294 303 303 296 290 291 290 290 290 292 298 301
231 138 118 162 163 219 193 230 236 178 126 73 85 92 214 176 113 251 218 186 186 213 193 191 225 214 204 219 245 204 176 177 218 198 210 245 172 279 81 172 260 122 270 195 265 140 203 227 256 182 247 187 116 42 29 68 81 60 48 32 27 358 341 335 333 335 313 258 279 297 285 295 308 309 309 303 300 295 288 292 299 302 297 293 296 297 295
93 163 163 181 201 207 222 281 164 136 142 145 226 125 200 193 161 228 146 101 287 269 151 222 207 212 200 215 217 239 156 160 207 228 207 284 179 169 245 93 257 109 226 180 245 126 138 196 242 114 279 244 122 44 31 43 57 42 38 359 338 342 310 317 304 297 287 281 280 280 280 276 279 279 290 296 300 301 305 307 303 298 297 295 296 297 297
150 112 165 202 210 178 187 133 34 45 122 137 150 225 125 281 231 200 132 207 188 250 196 187 150 196 210 207 211 231 230 102 41 114 125 197 244 101 124 201 239 85 263 229 268 82 85 103 194 186 232 92 100 61 36 2 348 3 325 291 331 287 311 297 289 280 284 282 277 273 274 272 271 271 274 277 282 285 288 291 296 301 303 301 301 298 299
181 163 177 141 122 94 96 63 107 110 233 170 156 222 185 213 32 1 150 154 225 217 288 147 231 200 216 192 208 188 242 153 122 123 123 256 258 133 222 239 9 115 221 232 101 58 87 188 194 246 206 194 212 141 19 350 342 340 318 324 296 310 299 292 293 278 273 280 284 283 279 276 273 274 276 281 281 282 285 290 291 294 293 292 293 292 293
164 115 82 82 85 226 210 152 199 137 168 193 124 230 176 164 199 157 243 251 285 113 250 64 215 153 293 58 352 124 182 176 142 182 99 200 290 64 108 33 89 127 216 80 92 92 164 210 226 253 155 192 74 331 7 298 317 298 309 299 312 301 303 296 302 298 289 283 285 283 284 282 278 275 278 278 281 280 277 276 282 288 293 293 291 290 289
122 123 100 31 145 244 133 206 164 98 205 162 164 190 168 158 286 82 91 255 220 247 235 152 211 148 229 301 139 7 16 349 148 98 39 253 96 184 73 196 219 251 46 22 84 167 221 220 201 171 168 276 298 335 338 334 330 315 309 306 303 290 300 301 299 298 296 283 276 281 281 280 282 282 274 271 272 278 285 284 283 284 287 289 286 285 286
115 91 125 159 208 214 120 233 112 149 194 204 164 200 163 189 212 193 199 254 72 217 349 57 150 147 178 244 52 341 117 232 326 92 237 105 72 235 125 240 230 47 119 214 305 324 4 276 129 99 27 341 325 333 323 318 315 315 309 308 302 306 308 311 307 303 298 299 295 295 289 289 288 288 286 282 279 274 281 287 292 292 291 287 281 279 280
173 166 149 174 208 218 163 215 96 334 282 165 196 184 189 213 163 204 247 47 1 347 21 318 88 112 124 179 128 206 62 130 84 200 144 44 117 241 233 234 89 85 18 60 215 228 229 224 104 271 337 308 312 313 317 302 308 305 320 313 313 308 305 301 301 298 297 299 298 294 294 295 293 296 297 292 289 286 281 281 285 288 290 286 280 285 300
133 167 135 152 184 229 125 182 214 198 177 164 250 209 173 157 154 137 156 72 117 256 291 271 272 173 128 208 70 351 79 91 139 234 82 79 170 267 24 104 238 169 142 236 239 245 253 228 255 292 303 310 307 306 306 309 308 309 302 296 304 309 312 307 304 301 298 295 295 297 297 298 297 293 291 293 289 285 285 286 286 286 288 291 297 305 307
180 198 129 165 204 154 179 221 130 92 25 97 344 66 129 140 95 59 352 22 262 294 282 250 112 5 27 305 77 182 218 286 73 293 145 191 28 38 4 18 249 250 176 170 228 215 107 112 291 302 303 307 301 309 309 310 305 303 301 304 306 310 310 308 303 300 302 302 301 302 299 298 297 297 295 292 293 292 290 290 295 296 296 295 300 303 304
134 138 167 175 180 123 90 126 122 81 22 10 53 36 68 91 102 187 291 309 302 250 234 90 324 81 145 65 127 123 245 217 109 244 81 48 116 211 155 221 164 271 259 159 180 137 228 306 296 285 296 305 302 300 299 301 305 309 311 311 309 305 304 301 300 299 300 299 297 297 298 297 297 295 293 293 294 294 296 297 296 296 300 305 309 310 311
113 61 31 66 81 26 99 102 84 123 320 356 39 76 65 87 96 344 343 4 314 288 245 190 201 122 230 106 49 53 276 214 160 349 60 234 205 240 68 259 214 196 223 176 257 247 273 291 315 310 294 295 296 299 302 303 303 302 299 296 297 300 303 304 304 302 298 296 297 293 293 295 293 291 294 295 294 292 293 293 297 302 305 308 310 312 322
29 79 92 308 191 176 146 162 167 150 182 204 139 39 7 35 70 358 359 343 297 14 60 104 140 98 64 51 96 59 254 73 51 210 169 206 182 145 190 224 238 207 235 193 214 262 289 299 301 294 302 292 294 295 293 295 301 300 300 299 297 298 302 304 299 297 297 296 295 296 295 291 287 289 289 290 288 287 289 295 300 301 309 311 315 323 334
96 111 133 71 8 35 62 81 61 70 87 106 108 352 68 62 359 325 319 324 302 102 159 182 91 91 82 185 206 180 24 47 261 57 323 271 105 158 219 174 159 198 206 266 294 281 284 279 268 275 285 294 296 298 296 293 293 294 294 295 298 301 307 309 305 300 298 299 296 293 291 290 292 291 288 286 282 289 300 306 314 316 315 319 324 326 323